Location: Betra
(48.4113°N, 8.6634°E)
Time: 18:04:14
(UTC+00:00)

Resurs 1-4 Rocket - Pass Details

Date: 08 August 2024
Orbit: 798 x 813 km, 98.7° (Epoch: 06 September)

Event Time Altitude Azimuth Distance (km) Brightness Sun altitude
Rises 00:04:14 0° 29° (NNE) 3,345 6.4 -25.1°
Reaches altitude 10° 00:07:34 10° 51° (NE) 2,405 5.2 -25.0°
Maximum altitude 00:10:46 16° 88° (E) 2,007 4.3 -24.9°
Enters shadow 00:12:44 13° 113° (ESE) 2,159 4.2 -24.9°
